| time (UTC) | temp F | wind direction | speed knots | gust knots | rain 1hr in | rain 24hr in | rain mn in | humidity % | barometer mb |
| 20260902113019 | 93 | 72 | 13.9 | 26.9 | 0.00 | 0.00 | 0.00 | 28 | 1016.3 |
| 20260902112518 | 93 | 45 | 10.4 | 26.9 | 0.00 | 0.00 | 0.00 | 28 | 1016.2 |
| 20260902112019 | 93 | 73 | 14.8 | 27.8 | 0.00 | 0.00 | 0.00 | 28 | 1016.2 |
| 20260902111520 | 94 | 98 | 12.2 | 25.2 | 0.00 | 0.00 | 0.00 | 28 | 1016.3 |
| 20260902111018 | 94 | 32 | 11.3 | 25.2 | 0.00 | 0.00 | 0.00 | 28 | 1016.4 |
| 20260902110518 | 93 | 83 | 13.0 | 25.2 | 0.00 | 0.00 | 0.00 | 27 | 1016.3 |
| 20260902110025 | 93 | 93 | 15.6 | 25.2 | 0.00 | 0.00 | 0.00 | 27 | 1016.4 |
| 20260902105518 | 94 | 44 | 12.2 | 26.1 | 0.00 | 0.00 | 0.00 | 27 | 1016.5 |
| 20260902105018 | 93 | 77 | 10.4 | 26.1 | 0.00 | 0.00 | 0.00 | 27 | 1016.5 |
| 20260902104531 | 93 | 84 | 16.5 | 26.1 | 0.00 | 0.00 | 0.00 | 27 | 1016.4 |
| 20260902104017 | 94 | 102 | 13.0 | 24.3 | 0.00 | 0.00 | 0.00 | 26 | 1016.6 |
| 20260902103516 | 94 | 117 | 13.9 | 26.1 | 0.00 | 0.00 | 0.00 | 26 | 1016.6 |
| 20260902103022 | 94 | 88 | 18.2 | 26.1 | 0.00 | 0.00 | 0.00 | 26 | 1016.5 |
| 20260902102521 | 94 | 47 | 11.3 | 21.7 | 0.00 | 0.00 | 0.00 | 27 | 1016.6 |
| 20260902102016 | 93 | 63 | 8.7 | 25.2 | 0.00 | 0.00 | 0.00 | 27 | 1016.7 |
| 20260902101517 | 94 | 88 | 13.9 | 25.2 | 0.00 | 0.00 | 0.00 | 27 | 1016.6 |
| 20260902101014 | 94 | 110 | 6.1 | 21.7 | 0.00 | 0.00 | 0.00 | 27 | 1016.7 |
| 20260902100513 | 94 | 34 | 12.2 | 21.7 | 0.00 | 0.00 | 0.00 | 27 | 1016.7 |
| 20260902100012 | 94 | 45 | 10.4 | 20.0 | 0.00 | 0.00 | 0.00 | 28 | 1016.8 |
| 20260902095511 | 93 | 49 | 9.6 | 21.7 | 0.00 | 0.00 | 0.00 | 28 | 1016.8 |
| 20260902095011 | 93 | 25 | 12.2 | 21.7 | 0.00 | 0.00 | 0.00 | 29 | 1016.8 |
| 20260902094507 | 93 | 81 | 13.9 | 25.2 | 0.00 | 0.00 | 0.00 | 28 | 1016.8 |
| 20260902094006 | 93 | 107 | 13.9 | 26.9 | 0.00 | 0.00 | 0.00 | 28 | 1016.9 |
| 20260902093503 | 93 | 89 | 10.4 | 26.9 | 0.00 | 0.00 | 0.00 | 29 | 1016.8 |
| 20260902093002 | 93 | 97 | 10.4 | 28.7 | 0.00 | 0.00 | 0.00 | 29 | 1016.8 |
| 20260902092501 | 92 | 86 | 13.9 | 28.7 | 0.00 | 0.00 | 0.00 | 29 | 1016.8 |
| 20260902092103 | 92 | 52 | 12.2 | 23.5 | 0.00 | 0.00 | 0.00 | 30 | 1016.7 |
| 20260902091558 | 92 | 54 | 11.3 | 23.5 | 0.00 | 0.00 | 0.00 | 29 | 1016.7 |
| 20260902091058 | 93 | 47 | 13.9 | 27.8 | 0.00 | 0.00 | 0.00 | 29 | 1016.6 |
| 20260902090556 | 92 | 28 | 17.4 | 27.8 | 0.00 | 0.00 | 0.00 | 30 | 1016.5 |
| 20260902090100 | 92 | 86 | 12.2 | 24.3 | 0.00 | 0.00 | 0.00 | 30 | 1016.5 |
| 20260902085554 | 92 | 67 | 13.0 | 22.6 | 0.00 | 0.00 | 0.00 | 30 | 1016.4 |
| 20260902085050 | 92 | 57 | 14.8 | 23.5 | 0.00 | 0.00 | 0.00 | 32 | 1016.4 |
| 20260902084549 | 92 | 68 | 13.9 | 23.5 | 0.00 | 0.00 | 0.00 | 31 | 1016.5 |
| 20260902084048 | 92 | 55 | 10.4 | 20.0 | 0.00 | 0.00 | 0.00 | 32 | 1016.5 |
| 20260902083546 | 92 | 355 | 10.4 | 22.6 | 0.00 | 0.00 | 0.00 | 33 | 1016.5 |
| 20260902083046 | 91 | 69 | 11.3 | 20.9 | 0.00 | 0.00 | 0.00 | 32 | 1016.4 |
| 20260902082543 | 92 | 27 | 12.2 | 24.3 | 0.00 | 0.00 | 0.00 | 32 | 1016.4 |
| 20260902082042 | 92 | 14 | 9.6 | 24.3 | 0.00 | 0.00 | 0.00 | 33 | 1016.4 |
| 20260902081543 | 91 | 63 | 9.6 | 19.1 | 0.00 | 0.00 | 0.00 | 33 | 1016.4 |
| 20260902081040 | 91 | 47 | 12.2 | 21.7 | 0.00 | 0.00 | 0.00 | 33 | 1016.4 |
| 20260902080538 | 90 | 67 | 11.3 | 21.7 | 0.00 | 0.00 | 0.00 | 34 | 1016.5 |
| 20260902080037 | 90 | 83 | 11.3 | 21.7 | 0.00 | 0.00 | 0.00 | 34 | 1016.5 |
| 20260902075536 | 90 | 80 | 8.7 | 21.7 | 0.00 | 0.00 | 0.00 | 35 | 1016.6 |
| 20260902075035 | 90 | 67 | 10.4 | 20.9 | 0.00 | 0.00 | 0.00 | 34 | 1016.5 |
| 20260902074543 | 90 | 59 | 9.6 | 20.9 | 0.00 | 0.00 | 0.00 | 34 | 1016.5 |
| 20260902074032 | 90 | 52 | 10.4 | 21.7 | 0.00 | 0.00 | 0.00 | 34 | 1016.6 |
| 20260902073530 | 89 | 30 | 12.2 | 22.6 | 0.00 | 0.00 | 0.00 | 34 | 1016.6 |
| 20260902073028 | 89 | 159 | 9.6 | 22.6 | 0.00 | 0.00 | 0.00 | 35 | 1016.6 |
| 20260902072526 | 89 | 29 | 8.7 | 19.1 | 0.00 | 0.00 | 0.00 | 35 | 1016.6 |
| 20260902072026 | 89 | 40 | 8.7 | 17.4 | 0.00 | 0.00 | 0.00 | 36 | 1016.6 |
| 20260902071524 | 89 | 59 | 10.4 | 19.1 | 0.00 | 0.00 | 0.00 | 35 | 1016.6 |
| 20260902071022 | 89 | 44 | 8.7 | 13.9 | 0.00 | 0.00 | 0.00 | 36 | 1016.7 |
| 20260902070521 | 89 | 76 | 6.1 | 14.8 | 0.00 | 0.00 | 0.00 | 36 | 1016.5 |
| 20260902070020 | 88 | 71 | 7.0 | 14.8 | 0.00 | 0.00 | 0.00 | 36 | 1016.4 |
| 20260902065519 | 88 | 84 | 7.0 | 18.2 | 0.00 | 0.00 | 0.00 | 36 | 1016.5 |
| 20260902065017 | 88 | 79 | 11.3 | 18.2 | 0.00 | 0.00 | 0.00 | 36 | 1016.4 |
| 20260902064520 | 88 | 58 | 9.6 | 15.6 | 0.00 | 0.00 | 0.00 | 37 | 1016.5 |
| 20260902064013 | 88 | 68 | 7.8 | 16.5 | 0.00 | 0.00 | 0.00 | 36 | 1016.4 |
| 20260902063511 | 88 | 51 | 8.7 | 15.6 | 0.00 | 0.00 | 0.00 | 36 | 1016.4 |
| 20260902063017 | 88 | 71 | 7.8 | 13.0 | 0.00 | 0.00 | 0.00 | 36 | 1016.4 |
| 20260902062510 | 87 | 117 | 6.1 | 15.6 | 0.00 | 0.00 | 0.00 | 37 | 1016.4 |
| 20260902062008 | 87 | 88 | 7.0 | 15.6 | 0.00 | 0.00 | 0.00 | 37 | 1016.4 |
| 20260902061516 | 87 | 105 | 3.5 | 9.6 | 0.00 | 0.00 | 0.00 | 39 | 1016.4 |
| 20260902061006 | 87 | 329 | 2.6 | 13.0 | 0.00 | 0.00 | 0.00 | 39 | 1016.4 |
| 20260902060503 | 86 | 108 | 4.3 | 13.0 | 0.00 | 0.00 | 0.00 | 39 | 1016.4 |
| 20260902060009 | 86 | 116 | 3.5 | 10.4 | 0.00 | 0.00 | 0.00 | 39 | 1016.3 |
| 20260902055503 | 86 | 130 | 3.5 | 7.8 | 0.00 | 0.00 | 0.00 | 39 | 1016.4 |
| 20260902055100 | 85 | 80 | 1.7 | 8.7 | 0.00 | 0.00 | 0.00 | 40 | 1016.4 |
| 20260902054600 | 85 | 119 | 1.7 | 10.4 | 0.00 | 0.00 | 0.00 | 40 | 1016.4 |
| 20260902054057 | 85 | 148 | 1.7 | 11.3 | 0.00 | 0.00 | 0.00 | 39 | 1016.3 |
| 20260902053555 | 85 | 87 | 7.8 | 11.3 | 0.00 | 0.00 | 0.00 | 40 | 1016.4 |
| 20260902053103 | 85 | 123 | 4.3 | 8.7 | 0.00 | 0.00 | 0.00 | 41 | 1016.4 |
| 20260902052554 | 84 | 160 | 4.3 | 6.1 | 0.00 | 0.00 | 0.00 | 42 | 1016.3 |
| 20260902052050 | 83 | 153 | 3.5 | 7.0 | 0.00 | 0.00 | 0.00 | 44 | 1016.3 |
| 20260902051554 | 83 | 169 | 4.3 | 6.1 | 0.00 | 0.00 | 0.00 | 46 | 1016.3 |
| 20260902051048 | 82 | 141 | 3.5 | 5.2 | 0.00 | 0.00 | 0.00 | 47 | 1016.5 |
| 20260902050547 | 82 | 136 | 3.5 | 5.2 | 0.00 | 0.00 | 0.00 | 49 | 1016.4 |
| 20260902050048 | 81 | 207 | 1.7 | 3.5 | 0.00 | 0.00 | 0.00 | 50 | 1016.4 |
| 20260902045544 | 81 | 248 | 0.9 | 2.6 | 0.00 | 0.00 | 0.00 | 50 | 1016.3 |
| 20260902045043 | 81 | 212 | 0.0 | 2.6 | 0.00 | 0.00 | 0.00 | 50 | 1016.4 |
| 20260902044545 | 81 | 212 | 0.9 | 2.6 | 0.00 | 0.00 | 0.00 | 51 | 1016.3 |
| 20260902044040 | 80 | 218 | 0.0 | 2.6 | 0.00 | 0.00 | 0.00 | 51 | 1016.3 |
| 20260902043538 | 80 | 214 | 0.0 | 2.6 | 0.00 | 0.00 | 0.00 | 51 | 1016.2 |
| 20260902043037 | 80 | 211 | 0.9 | 2.6 | 0.00 | 0.00 | 0.00 | 51 | 1016.2 |
| 20260902042539 | 80 | 186 | 0.9 | 3.5 | 0.00 | 0.00 | 0.00 | 51 | 1016.2 |
| 20260902042035 | 80 | 196 | 0.9 | 4.3 | 0.00 | 0.00 | 0.00 | 51 | 1016.1 |
| 20260902041538 | 80 | 225 | 1.7 | 3.5 | 0.00 | 0.00 | 0.00 | 51 | 1016.1 |
| 20260902041033 | 80 | 223 | 0.9 | 2.6 | 0.00 | 0.00 | 0.00 | 50 | 1016.1 |
| 20260902040532 | 80 | 198 | 0.0 | 3.5 | 0.00 | 0.00 | 0.00 | 51 | 1016.2 |
| 20260902040032 | 80 | 196 | 0.0 | 3.5 | 0.00 | 0.00 | 0.00 | 51 | 1016.2 |
| 20260902035531 | 80 | 267 | 0.0 | 1.7 | 0.00 | 0.00 | 0.00 | 50 | 1016.1 |
| 20260902035031 | 80 | 262 | 0.0 | 0.0 | 0.00 | 0.00 | 0.00 | 50 | 1016.0 |
| 20260902034534 | 80 | 203 | 0.0 | 2.6 | 0.00 | 0.00 | 0.00 | 50 | 1016.0 |
| 20260902034030 | 80 | 214 | 0.9 | 3.5 | 0.00 | 0.00 | 0.00 | 50 | 1015.9 |
| 20260902033531 | 80 | 186 | 0.9 | 3.5 | 0.00 | 0.00 | 0.00 | 50 | 1015.8 |
| 20260902033030 | 80 | 261 | 1.7 | 3.5 | 0.00 | 0.00 | 0.00 | 50 | 1015.9 |
| 20260902032530 | 80 | 163 | 0.9 | 6.1 | 0.00 | 0.00 | 0.00 | 50 | 1015.7 |
| 20260902032029 | 81 | 99 | 1.7 | 7.0 | 0.00 | 0.00 | 0.00 | 49 | 1015.8 |
| 20260902031530 | 81 | 140 | 5.2 | 7.0 | 0.00 | 0.00 | 0.00 | 49 | 1015.6 |
| 20260902031030 | 81 | 155 | 4.3 | 7.0 | 0.00 | 0.00 | 0.00 | 49 | 1015.6 |
| 20260902030534 | 81 | 128 | 3.5 | 7.0 | 0.00 | 0.00 | 0.00 | 49 | 1015.7 |
| 20260902030029 | 81 | 134 | 4.3 | 8.7 | 0.00 | 0.00 | 0.00 | 49 | 1015.6 |
| 20260902025528 | 81 | 142 | 5.2 | 7.8 | 0.00 | 0.00 | 0.00 | 49 | 1015.6 |
| 20260902025028 | 80 | 128 | 5.2 | 7.8 | 0.00 | 0.00 | 0.00 | 49 | 1015.6 |
| 20260902024527 | 81 | 130 | 2.6 | 6.1 | 0.00 | 0.00 | 0.00 | 49 | 1015.6 |
| 20260902024030 | 81 | 130 | 3.5 | 6.1 | 0.00 | 0.00 | 0.00 | 49 | 1015.5 |
| 20260902023526 | 81 | 132 | 4.3 | 6.1 | 0.00 | 0.00 | 0.00 | 49 | 1015.5 |
| 20260902023028 | 81 | 128 | 1.7 | 4.3 | 0.00 | 0.00 | 0.00 | 49 | 1015.7 |
| 20260902022526 | 81 | 137 | 1.7 | 5.2 | 0.00 | 0.00 | 0.00 | 49 | 1015.6 |
| 20260902022026 | 81 | 123 | 1.7 | 6.1 | 0.00 | 0.00 | 0.00 | 49 | 1015.7 |
| 20260902021525 | 81 | 123 | 2.6 | 6.1 | 0.00 | 0.00 | 0.00 | 49 | 1015.7 |
| 20260902021029 | 81 | 132 | 0.9 | 5.2 | 0.00 | 0.00 | 0.00 | 49 | 1015.7 |
| 20260902020525 | 81 | 126 | 1.7 | 3.5 | 0.00 | 0.00 | 0.00 | 50 | 1015.7 |
| 20260902020025 | 81 | 122 | 0.9 | 5.2 | 0.00 | 0.00 | 0.00 | 50 | 1015.6 |
| 20260902015625 | 81 | 122 | 1.7 | 7.0 | 0.00 | 0.00 | 0.00 | 49 | 1015.7 |
| 20260902015024 | 81 | 111 | 2.6 | 7.0 | 0.00 | 0.00 | 0.00 | 49 | 1015.8 |
| 20260902014533 | 81 | 93 | 2.6 | 7.8 | 0.00 | 0.00 | 0.00 | 49 | 1015.8 |
| 20260902014023 | 81 | 137 | 2.6 | 7.8 | 0.00 | 0.00 | 0.00 | 49 | 1015.9 |
| 20260902013523 | 81 | 105 | 0.9 | 5.2 | 0.00 | 0.00 | 0.00 | 48 | 1015.9 |
| 20260902013023 | 82 | 84 | 0.0 | 3.5 | 0.00 | 0.00 | 0.00 | 48 | 1015.9 |
| 20260902012524 | 82 | 79 | 0.9 | 6.1 | 0.00 | 0.00 | 0.00 | 48 | 1016.0 |
| 20260902012022 | 82 | 142 | 2.6 | 6.1 | 0.00 | 0.00 | 0.00 | 48 | 1015.9 |
| 20260902011524 | 82 | 136 | 3.5 | 6.1 | 0.00 | 0.00 | 0.00 | 48 | 1015.8 |
| 20260902011022 | 82 | 157 | 1.7 | 4.3 | 0.00 | 0.00 | 0.00 | 48 | 1015.8 |
| 20260902010522 | 81 | 162 | 1.7 | 4.3 | 0.00 | 0.00 | 0.00 | 48 | 1015.7 |
| 20260902010031 | 81 | 209 | 0.9 | 2.6 | 0.00 | 0.00 | 0.00 | 50 | 1015.7 |
| 20260902005521 | 81 | 284 | 0.0 | 0.0 | 0.00 | 0.00 | 0.00 | 49 | 1015.8 |
| 20260902005021 | 81 | 304 | 0.0 | 0.0 | 0.00 | 0.00 | 0.00 | 51 | 1015.7 |
| 20260902004521 | 81 | 305 | 0.0 | 0.0 | 0.00 | 0.00 | 0.00 | 51 | 1015.7 |
| 20260902004020 | 80 | 325 | 0.0 | 0.0 | 0.00 | 0.00 | 0.00 | 53 | 1015.8 |
| 20260902003520 | 80 | 329 | 0.0 | 2.6 | 0.00 | 0.00 | 0.00 | 53 | 1015.7 |
| 20260902003019 | 80 | 331 | 0.9 | 2.6 | 0.00 | 0.00 | 0.00 | 53 | 1015.7 |
| 20260902002520 | 80 | 351 | 0.9 | 2.6 | 0.00 | 0.00 | 0.00 | 53 | 1015.7 |
| 20260902002019 | 80 | 5 | 0.0 | 0.9 | 0.00 | 0.00 | 0.00 | 53 | 1015.7 |
| 20260902001523 | 80 | 5 | 0.0 | 2.6 | 0.00 | 0.00 | 0.00 | 53 | 1015.7 |
| 20260902001017 | 81 | 9 | 0.9 | 3.5 | 0.00 | 0.00 | 0.00 | 52 | 1015.7 |
| 20260902000517 | 82 | 9 | 1.7 | 5.2 | 0.00 | 0.00 | 0.00 | 51 | 1015.7 |
| 20260902000021 | 82 | 113 | 0.9 | 6.1 | 0.00 | 0.00 | 0.00 | 49 | 1015.7 |
| 20260901235515 | 82 | 101 | 3.5 | 6.1 | 0.00 | 0.00 | 0.00 | 49 | 1015.7 |
| 20260901235016 | 82 | 101 | 2.6 | 6.1 | 0.00 | 0.00 | 0.00 | 49 | 1015.7 |
| 20260901234515 | 82 | 112 | 3.5 | 6.1 | 0.00 | 0.00 | 0.00 | 50 | 1015.7 |
| 20260901234015 | 82 | 108 | 2.6 | 7.0 | 0.00 | 0.00 | 0.00 | 50 | 1015.7 |
| 20260901233514 | 83 | 93 | 4.3 | 7.0 | 0.00 | 0.00 | 0.00 | 50 | 1015.7 |
| 20260901233014 | 83 | 64 | 3.5 | 7.0 | 0.00 | 0.00 | 0.00 | 50 | 1015.7 |
| 20260901232513 | 83 | 98 | 3.5 | 7.0 | 0.00 | 0.00 | 0.00 | 50 | 1015.8 |
| 20260901232013 | 83 | 103 | 4.3 | 7.8 | 0.00 | 0.00 | 0.00 | 50 | 1015.8 |
| 20260901231514 | 83 | 98 | 3.5 | 8.7 | 0.00 | 0.00 | 0.00 | 50 | 1015.8 |
| 20260901231012 | 83 | 107 | 5.2 | 8.7 | 0.00 | 0.00 | 0.00 | 50 | 1015.8 |
| 20260901230512 | 83 | 86 | 3.5 | 8.7 | 0.00 | 0.00 | 0.00 | 50 | 1015.9 |
| 20260901230013 | 83 | 90 | 5.2 | 8.7 | 0.00 | 0.00 | 0.00 | 50 | 1015.8 |
| 20260901225511 | 83 | 100 | 6.1 | 10.4 | 0.00 | 0.00 | 0.00 | 50 | 1015.9 |
| 20260901225011 | 83 | 95 | 6.1 | 12.2 | 0.00 | 0.00 | 0.00 | 50 | 1015.9 |
| 20260901224511 | 83 | 98 | 7.0 | 11.3 | 0.00 | 0.00 | 0.00 | 51 | 1015.9 |
| 20260901224011 | 83 | 82 | 5.2 | 11.3 | 0.00 | 0.00 | 0.00 | 51 | 1015.8 |
| 20260901223510 | 83 | 98 | 6.1 | 10.4 | 0.00 | 0.00 | 0.00 | 51 | 1015.9 |
| 20260901223010 | 83 | 61 | 5.2 | 9.6 | 0.00 | 0.00 | 0.00 | 52 | 1015.9 |
| 20260901222509 | 83 | 90 | 5.2 | 9.6 | 0.00 | 0.00 | 0.00 | 52 | 1015.9 |
| 20260901222009 | 83 | 38 | 3.5 | 9.6 | 0.00 | 0.00 | 0.00 | 52 | 1016.0 |
| 20260901221508 | 83 | 13 | 3.5 | 10.4 | 0.00 | 0.00 | 0.00 | 52 | 1016.1 |
| 20260901221008 | 83 | 64 | 4.3 | 12.2 | 0.00 | 0.00 | 0.00 | 51 | 1016.1 |
| 20260901220508 | 83 | 98 | 3.5 | 12.2 | 0.00 | 0.00 | 0.00 | 51 | 1016.0 |
| 20260901220012 | 83 | 62 | 3.5 | 11.3 | 0.00 | 0.00 | 0.00 | 51 | 1016.0 |
| 20260901215507 | 83 | 90 | 4.3 | 11.3 | 0.00 | 0.00 | 0.00 | 51 | 1016.0 |
| 20260901215006 | 83 | 59 | 4.3 | 10.4 | 0.00 | 0.00 | 0.00 | 51 | 1016.0 |
| 20260901214507 | 83 | 57 | 4.3 | 9.6 | 0.00 | 0.00 | 0.00 | 51 | 1016.1 |
| 20260901214006 | 83 | 45 | 3.5 | 9.6 | 0.00 | 0.00 | 0.00 | 51 | 1016.0 |
| 20260901213504 | 82 | 76 | 6.1 | 8.7 | 0.00 | 0.00 | 0.00 | 52 | 1015.9 |
| 20260901213003 | 82 | 42 | 3.5 | 7.8 | 0.00 | 0.00 | 0.00 | 52 | 1016.0 |
| 20260901212502 | 82 | 25 | 1.7 | 7.0 | 0.00 | 0.00 | 0.00 | 53 | 1016.0 |
| 20260901212001 | 82 | 74 | 1.7 | 5.2 | 0.00 | 0.00 | 0.00 | 53 | 1016.0 |
| 20260901211600 | 81 | 80 | 2.6 | 4.3 | 0.00 | 0.00 | 0.00 | 54 | 1016.0 |
| 20260901211059 | 81 | 5 | 2.6 | 4.3 | 0.00 | 0.00 | 0.00 | 54 | 1016.0 |
| 20260901210559 | 81 | 13 | 0.9 | 3.5 | 0.00 | 0.00 | 0.00 | 54 | 1016.0 |
| 20260901210058 | 81 | 13 | 1.7 | 4.3 | 0.00 | 0.00 | 0.00 | 54 | 1016.0 |
| 20260901205558 | 81 | 15 | 1.7 | 4.3 | 0.00 | 0.00 | 0.00 | 53 | 1016.0 |
| 20260901205101 | 81 | 35 | 2.6 | 5.2 | 0.00 | 0.00 | 0.00 | 53 | 1016.1 |
| 20260901204558 | 82 | 11 | 1.7 | 5.2 | 0.00 | 0.00 | 0.00 | 53 | 1016.1 |
| 20260901204059 | 82 | 57 | 0.9 | 5.2 | 0.00 | 0.00 | 0.00 | 53 | 1016.0 |
| 20260901203558 | 82 | 55 | 2.6 | 5.2 | 0.00 | 0.00 | 0.00 | 53 | 1016.0 |
| 20260901203056 | 82 | 34 | 3.5 | 7.0 | 0.00 | 0.00 | 0.00 | 52 | 1016.0 |
| 20260901202556 | 82 | 24 | 3.5 | 7.0 | 0.00 | 0.00 | 0.00 | 52 | 1016.0 |
| 20260901202056 | 82 | 5 | 2.6 | 5.2 | 0.00 | 0.00 | 0.00 | 52 | 1016.1 |
| 20260901201601 | 82 | 42 | 2.6 | 7.8 | 0.00 | 0.00 | 0.00 | 51 | 1016.0 |
| 20260901201056 | 82 | 53 | 4.3 | 7.8 | 0.00 | 0.00 | 0.00 | 52 | 1016.0 |
| 20260901200555 | 82 | 26 | 4.3 | 7.8 | 0.00 | 0.00 | 0.00 | 51 | 1016.1 |
| 20260901200055 | 82 | 27 | 4.3 | 8.7 | 0.00 | 0.00 | 0.00 | 51 | 1016.1 |
| 20260901195556 | 83 | 32 | 5.2 | 8.7 | 0.00 | 0.00 | 0.00 | 51 | 1016.1 |
| 20260901195057 | 83 | 14 | 5.2 | 8.7 | 0.00 | 0.00 | 0.00 | 50 | 1016.2 |
| 20260901194602 | 83 | 20 | 3.5 | 7.0 | 0.00 | 0.00 | 0.00 | 50 | 1016.2 |
| 20260901194054 | 83 | 5 | 2.6 | 4.3 | 0.00 | 0.00 | 0.00 | 50 | 1016.1 |
| 20260901193554 | 84 | 31 | 2.6 | 10.4 | 0.00 | 0.00 | 0.00 | 49 | 1016.2 |
| 20260901193104 | 84 | 81 | 3.5 | 10.4 | 0.00 | 0.00 | 0.00 | 49 | 1016.1 |
| 20260901192553 | 84 | 54 | 4.3 | 8.7 | 0.00 | 0.00 | 0.00 | 49 | 1016.2 |
| 20260901192054 | 84 | 13 | 4.3 | 10.4 | 0.00 | 0.00 | 0.00 | 49 | 1016.2 |
| 20260901191554 | 84 | 69 | 5.2 | 10.4 | 0.00 | 0.00 | 0.00 | 49 | 1016.2 |
| 20260901191055 | 84 | 59 | 4.3 | 10.4 | 0.00 | 0.00 | 0.00 | 49 | 1016.1 |
| 20260901190552 | 84 | 76 | 4.3 | 10.4 | 0.00 | 0.00 | 0.00 | 49 | 1016.1 |
| 20260901190052 | 84 | 46 | 4.3 | 9.6 | 0.00 | 0.00 | 0.00 | 49 | 1016.1 |
| 20260901185551 | 84 | 35 | 4.3 | 9.6 | 0.00 | 0.00 | 0.00 | 49 | 1016.0 |
| 20260901185051 | 84 | 55 | 5.2 | 10.4 | 0.00 | 0.00 | 0.00 | 49 | 1016.0 |
| 20260901184557 | 84 | 51 | 6.1 | 10.4 | 0.00 | 0.00 | 0.00 | 49 | 1015.9 |
| 20260901184053 | 84 | 37 | 3.5 | 9.6 | 0.00 | 0.00 | 0.00 | 49 | 1015.9 |
| 20260901183550 | 84 | 52 | 4.3 | 8.7 | 0.00 | 0.00 | 0.00 | 49 | 1015.9 |
| 20260901183050 | 84 | 46 | 4.3 | 8.7 | 0.00 | 0.00 | 0.00 | 48 | 1015.7 |
| 20260901182550 | 84 | 10 | 3.5 | 10.4 | 0.00 | 0.00 | 0.00 | 48 | 1015.7 |
| 20260901182050 | 84 | 65 | 5.2 | 10.4 | 0.00 | 0.00 | 0.00 | 48 | 1015.6 |
| 20260901181550 | 84 | 38 | 3.5 | 9.6 | 0.00 | 0.00 | 0.00 | 47 | 1015.6 |
| 20260901181049 | 85 | 39 | 5.2 | 9.6 | 0.00 | 0.00 | 0.00 | 47 | 1015.6 |
| 20260901180549 | 85 | 45 | 4.3 | 9.6 | 0.00 | 0.00 | 0.00 | 47 | 1015.6 |
| 20260901180049 | 85 | 42 | 5.2 | 8.7 | 0.00 | 0.00 | 0.00 | 47 | 1015.5 |
| 20260901175550 | 85 | 44 | 3.5 | 8.7 | 0.00 | 0.00 | 0.00 | 46 | 1015.4 |
| 20260901175049 | 86 | 53 | 3.5 | 10.4 | 0.00 | 0.00 | 0.00 | 46 | 1015.3 |
| 20260901174549 | 86 | 65 | 3.5 | 12.2 | 0.00 | 0.00 | 0.00 | 46 | 1015.3 |
| 20260901174049 | 86 | 41 | 6.1 | 12.2 | 0.00 | 0.00 | 0.00 | 45 | 1015.3 |
| 20260901173548 | 86 | 81 | 6.1 | 10.4 | 0.00 | 0.00 | 0.00 | 45 | 1015.2 |
| 20260901173048 | 86 | 118 | 4.3 | 11.3 | 0.00 | 0.00 | 0.00 | 45 | 1015.2 |
| 20260901172548 | 86 | 87 | 7.0 | 12.2 | 0.00 | 0.00 | 0.00 | 44 | 1015.1 |
| 20260901172048 | 86 | 106 | 6.1 | 12.2 | 0.00 | 0.00 | 0.00 | 44 | 1015.0 |
| 20260901171551 | 87 | 97 | 6.1 | 12.2 | 0.00 | 0.00 | 0.00 | 44 | 1015.2 |
| 20260901171047 | 87 | 88 | 5.2 | 9.6 | 0.00 | 0.00 | 0.00 | 44 | 1015.1 |
| 20260901170547 | 87 | 71 | 6.1 | 11.3 | 0.00 | 0.00 | 0.00 | 44 | 1015.1 |
| 20260901170148 | 87 | 60 | 7.0 | 11.3 | 0.00 | 0.00 | 0.00 | 44 | 1015.1 |
| 20260901165546 | 87 | 78 | 7.8 | 11.3 | 0.00 | 0.00 | 0.00 | 44 | 1015.0 |
| 20260901165046 | 87 | 97 | 4.3 | 11.3 | 0.00 | 0.00 | 0.00 | 44 | 1015.1 |
| 20260901164548 | 88 | 103 | 6.1 | 9.6 | 0.00 | 0.00 | 0.00 | 43 | 1015.1 |
| 20260901164045 | 88 | 96 | 4.3 | 10.4 | 0.00 | 0.00 | 0.00 | 43 | 1015.0 |
| 20260901163545 | 88 | 111 | 6.1 | 10.4 | 0.00 | 0.00 | 0.00 | 42 | 1014.9 |
| 20260901163045 | 89 | 104 | 3.5 | 10.4 | 0.00 | 0.00 | 0.00 | 42 | 1014.9 |
| 20260901162544 | 89 | 83 | 5.2 | 9.6 | 0.00 | 0.00 | 0.00 | 41 | 1014.8 |
| 20260901162044 | 89 | 126 | 4.3 | 9.6 | 0.00 | 0.00 | 0.00 | 41 | 1014.8 |
| 20260901161546 | 89 | 109 | 3.5 | 11.3 | 0.00 | 0.00 | 0.00 | 40 | 1014.8 |
| 20260901161046 | 90 | 94 | 4.3 | 11.3 | 0.00 | 0.00 | 0.00 | 39 | 1014.7 |
| 20260901160545 | 91 | 102 | 2.6 | 13.0 | 0.00 | 0.00 | 0.00 | 39 | 1014.7 |
| 20260901160050 | 91 | 88 | 6.1 | 13.0 | 0.00 | 0.00 | 0.00 | 37 | 1014.6 |
| 20260901155543 | 91 | 86 | 3.5 | 13.0 | 0.00 | 0.00 | 0.00 | 37 | 1014.6 |
| 20260901155043 | 91 | 68 | 6.1 | 13.9 | 0.00 | 0.00 | 0.00 | 36 | 1014.6 |
| 20260901154542 | 91 | 90 | 7.8 | 13.9 | 0.00 | 0.00 | 0.00 | 36 | 1014.6 |
| 20260901154039 | 92 | 100 | 5.2 | 13.9 | 0.00 | 0.00 | 0.00 | 36 | 1014.5 |
| 20260901153538 | 92 | 38 | 6.1 | 14.8 | 0.00 | 0.00 | 0.00 | 36 | 1014.5 |
| 20260901153038 | 92 | 5 | 5.2 | 14.8 | 0.00 | 0.00 | 0.00 | 36 | 1014.5 |
| 20260901152538 | 92 | 52 | 7.0 | 14.8 | 0.00 | 0.00 | 0.00 | 36 | 1014.4 |
| 20260901152041 | 92 | 83 | 7.0 | 15.6 | 0.00 | 0.00 | 0.00 | 36 | 1014.4 |
| 20260901151537 | 92 | 117 | 7.8 | 15.6 | 0.00 | 0.00 | 0.00 | 36 | 1014.4 |
| 20260901151038 | 92 | 67 | 8.7 | 15.6 | 0.00 | 0.00 | 0.00 | 36 | 1014.5 |
| 20260901150537 | 92 | 69 | 9.6 | 16.5 | 0.00 | 0.00 | 0.00 | 36 | 1014.5 |
| 20260901150054 | 92 | 94 | 10.4 | 16.5 | 0.00 | 0.00 | 0.00 | 36 | 1014.4 |
| 20260901145535 | 92 | 51 | 7.8 | 16.5 | 0.00 | 0.00 | 0.00 | 36 | 1014.4 |
| 20260901145035 | 92 | 109 | 12.2 | 16.5 | 0.00 | 0.00 | 0.00 | 36 | 1014.3 |
| 20260901144534 | 92 | 45 | 9.6 | 14.8 | 0.00 | 0.00 | 0.00 | 36 | 1014.3 |
| 20260901144034 | 92 | 74 | 8.7 | 15.6 | 0.00 | 0.00 | 0.00 | 36 | 1014.5 |
| 20260901143530 | 92 | 56 | 10.4 | 15.6 | 0.00 | 0.00 | 0.00 | 37 | 1014.6 |
| 20260901143030 | 92 | 80 | 10.4 | 15.6 | 0.00 | 0.00 | 0.00 | 36 | 1014.5 |
| 20260901142530 | 93 | 112 | 9.6 | 17.4 | 0.00 | 0.00 | 0.00 | 36 | 1014.4 |
| 20260901142029 | 92 | 74 | 10.4 | 17.4 | 0.00 | 0.00 | 0.00 | 36 | 1014.4 |
| 20260901141528 | 92 | 82 | 10.4 | 17.4 | 0.00 | 0.00 | 0.00 | 36 | 1014.4 |
| 20260901141027 | 92 | 82 | 11.3 | 17.4 | 0.00 | 0.00 | 0.00 | 36 | 1014.5 |
| 20260901140526 | 92 | 65 | 9.6 | 17.4 | 0.00 | 0.00 | 0.00 | 36 | 1014.5 |
| 20260901140026 | 92 | 113 | 7.8 | 17.4 | 0.00 | 0.00 | 0.00 | 36 | 1014.6 |
| 20260901135526 | 93 | 82 | 8.7 | 17.4 | 0.00 | 0.00 | 0.00 | 36 | 1014.7 |
| 20260901135029 | 93 | 76 | 11.3 | 19.1 | 0.00 | 0.00 | 0.00 | 35 | 1014.7 |
| 20260901134530 | 93 | 83 | 8.7 | 19.1 | 0.00 | 0.00 | 0.00 | 36 | 1014.6 |
| 20260901134025 | 93 | 98 | 13.0 | 17.4 | 0.00 | 0.00 | 0.00 | 36 | 1014.7 |
| 20260901133525 | 93 | 105 | 9.6 | 18.2 | 0.00 | 0.00 | 0.00 | 36 | 1014.6 |
| 20260901133021 | 93 | 61 | 12.2 | 18.2 | 0.00 | 0.00 | 0.00 | 36 | 1014.6 |
| 20260901132520 | 93 | 84 | 9.6 | 19.1 | 0.00 | 0.00 | 0.00 | 35 | 1014.7 |
| 20260901132021 | 93 | 90 | 11.3 | 19.1 | 0.00 | 0.00 | 0.00 | 35 | 1014.5 |
| 20260901131522 | 93 | 55 | 8.7 | 17.4 | 0.00 | 0.00 | 0.00 | 35 | 1014.6 |
| 20260901131016 | 94 | 89 | 10.4 | 20.0 | 0.00 | 0.00 | 0.00 | 35 | 1014.6 |
| 20260901130515 | 93 | 79 | 12.2 | 20.0 | 0.00 | 0.00 | 0.00 | 35 | 1014.6 |
| 20260901130014 | 93 | 106 | 9.6 | 19.1 | 0.00 | 0.00 | 0.00 | 35 | 1014.6 |
| 20260901125512 | 93 | 120 | 7.8 | 15.6 | 0.00 | 0.00 | 0.00 | 35 | 1014.6 |
| 20260901125011 | 93 | 78 | 8.7 | 17.4 | 0.00 | 0.00 | 0.00 | 35 | 1014.7 |
| 20260901124510 | 93 | 99 | 11.3 | 17.4 | 0.00 | 0.00 | 0.00 | 35 | 1014.7 |
| 20260901124009 | 93 | 128 | 8.7 | 16.5 | 0.00 | 0.00 | 0.00 | 35 | 1014.8 |
| 20260901123511 | 94 | 90 | 9.6 | 18.2 | 0.00 | 0.00 | 0.00 | 35 | 1014.9 |
| 20260901123015 | 93 | 109 | 8.7 | 18.2 | 0.00 | 0.00 | 0.00 | 34 | 1014.9 |
| 20260901122505 | 94 | 105 | 9.6 | 15.6 | 0.00 | 0.00 | 0.00 | 34 | 1015.1 |
| 20260901122003 | 93 | 86 | 7.8 | 15.6 | 0.00 | 0.00 | 0.00 | 35 | 1015.1 |
| 20260901121502 | 94 | 113 | 7.8 | 16.5 | 0.00 | 0.00 | 0.00 | 35 | 1015.1 |
| 20260901121101 | 93 | 71 | 7.8 | 18.2 | 0.00 | 0.00 | 0.00 | 34 | 1015.3 |
| 20260901120604 | 93 | 73 | 11.3 | 19.1 | 0.00 | 0.00 | 0.00 | 34 | 1015.1 |
| 20260901120113 | 93 | 96 | 7.8 | 18.2 | 0.00 | 0.00 | 0.00 | 34 | 1015.2 |
| 20260901115604 | 93 | 119 | 10.4 | 18.2 | 0.00 | 0.00 | 0.00 | 34 | 1015.3 |
| 20260901115100 | 93 | 91 | 9.6 | 15.6 | 0.00 | 0.00 | 0.00 | 34 | 1015.3 |
| 20260901114559 | 94 | 103 | 7.0 | 18.2 | 0.00 | 0.00 | 0.00 | 33 | 1015.3 |
| 20260901114057 | 93 | 48 | 10.4 | 18.2 | 0.00 | 0.00 | 0.00 | 33 | 1015.2 |
| 20260901113555 | 93 | 96 | 7.0 | 17.4 | 0.00 | 0.00 | 0.00 | 34 | 1015.3 |